Simultaneous Nadir Overpasses (SNOs) Predictions

Prediction of SNOs between METOP-B and TERRA Satellite Orbit:

Table of predicted SNOs for the next 14.0 days since TLE Epoch: 4/29/2023
Index Date (METOP-B) Time (METOP-B) Lat,Lon (METOP-B) SZA (METOP-B ) Date (TERRA) Time (TERRA) Lat,Lon (TERRA) SZA (TERRA ) Distance(km) Time Diff (sec)
1 05/01/2023 09:37:21 -80.88,-110.67 112.55 05/01/2023 09:38:01 -80.88,-110.77 112.55 1.78 40
2 05/01/2023 10:28:01 80.90, 56.91 67.48 05/01/2023 10:27:23 80.90, 57.05 67.48 2.37 38
3 05/04/2023 01:48:58 -80.89, 6.59 113.31 05/04/2023 01:49:00 -80.89, 6.55 113.32 0.76 2
4 05/06/2023 17:09:55 80.88, -43.88 65.92 05/06/2023 17:10:37 80.88, -44.06 65.91 3.07 42
5 05/06/2023 18:00:34 -80.92, 124.15 114.00 05/06/2023 17:59:58 -80.91, 124.02 114.04 2.43 36
6 05/09/2023 09:21:31 80.88, 73.23 65.19 05/09/2023 09:21:34 80.88, 73.20 65.19 0.58 3
7 05/09/2023 10:11:33 -81.34,-104.70 112.92 05/09/2023 10:10:19 -81.69,-105.12 112.78 39.75 74
8 05/12/2023 00:42:29 -80.85, 22.46 115.57 05/12/2023 00:43:10 -80.86, 22.52 115.54 1.21 41



Historial Predications of SNOs between METOP-B and TERRA
